Wind_Speed
25 24 23 21 20 20 18 17 15 12 9 6 5 3 2 1 2 3 4 5 6 13 11 12 14 19 23 26 25 25 28 26 25 29 27 26 28 26 26 26 25 25 23 17 12
27 26 24 23 22 22 22 20 18 15 13 10 7 5 3 1 2 3 3 3 6 9 8 10 14 19 22 25 25 28 28 25 24 27 28 25 27 26 26 26 24 20 22 21 14
27 27 25 24 24 23 24 23 21 19 16 13 10 8 5 2 3 4 4 6 6 6 5 8 9 17 21 22 24 25 27 24 22 24 27 26 24 24 24 24 23 20 20 21 17
27 27 26 25 25 24 24 25 24 22 19 16 14 12 9 5 3 3 3 5 4 7 6 7 9 17 21 20 21 21 25 23 24 23 26 29 29 31 30 31 30 20 17 18 20
25 27 27 26 25 25 25 25 26 25 23 20 18 15 13 9 6 4 3 4 4 6 10 8 8 16 19 19 21 23 22 23 25 25 27 29 33 33 33 36 33 24 15 18 19
22 26 27 27 27 26 26 25 26 27 25 23 20 18 16 13 12 9 7 5 3 4 11 10 10 10 16 16 17 20 23 23 23 23 23 26 28 29 31 32 35 35 23 21 18
24 24 25 28 29 28 28 28 26 25 27 26 24 21 21 18 15 13 12 9 6 4 7 9 10 11 11 14 14 20 20 21 19 19 19 21 22 25 32 34 32 27 31 24 20
28 27 26 27 28 29 29 29 28 26 26 27 27 26 25 22 20 17 14 11 9 7 5 7 7 12 16 14 17 16 17 19 18 16 15 15 15 18 25 30 31 27 28 29 18
32 30 29 28 28 28 28 29 29 29 28 26 26 27 28 25 25 20 17 14 13 12 9 7 6 9 13 15 16 13 13 14 13 12 14 14 13 12 19 25 25 29 28 26 21
35 33 32 31 30 29 28 29 30 30 30 29 28 28 29 27 27 24 22 18 17 15 14 11 10 8 10 13 14 12 13 11 11 10 11 11 11 12 16 21 23 24 26 21 22
37 36 34 33 32 30 29 29 30 30 30 31 31 32 29 27 29 27 25 21 19 17 16 14 14 10 11 11 12 13 14 10 10 7 7 5 7 12 16 17 20 20 23 17 21
38 39 37 36 35 32 30 30 31 31 30 30 30 30 32 31 32 31 28 25 22 21 19 17 14 16 15 14 11 12 12 10 8 6 3 2 7 14 15 14 15 20 26 14 18
33 39 40 38 37 34 32 31 30 31 30 30 30 30 31 31 33 33 30 27 25 24 22 19 18 19 19 18 15 14 12 9 7 8 4 1 3 7 12 11 14 18 21 17 17
23 32 40 40 40 36 33 33 31 30 29 31 31 31 33 32 32 35 32 30 28 26 25 22 22 21 24 22 20 18 15 14 12 11 9 9 3 6 8 9 10 15 15 15 18
23 24 31 40 41 39 35 33 32 31 28 31 31 30 33 33 32 36 35 32 30 29 26 23 24 22 24 24 26 22 18 20 18 14 13 9 9 4 7 11 12 13 10 12 13
22 23 25 30 39 40 38 35 33 33 32 30 30 31 31 31 32 36 37 34 33 34 30 31 27 25 23 29 30 27 20 24 20 18 14 14 14 9 10 12 13 12 9 16 21
24 23 25 25 30 36 38 37 35 34 34 33 30 31 31 30 31 35 36 36 36 35 34 33 31 28 29 27 26 29 22 26 21 19 16 18 17 13 11 11 9 10 14 24 23
22 23 26 25 27 30 34 37 36 35 34 34 34 32 31 32 34 35 36 36 37 37 36 36 34 31 30 29 28 33 28 29 23 20 21 23 16 11 9 9 10 16 20 22 15
23 23 27 26 26 30 31 33 33 34 32 32 34 33 34 31 34 36 36 35 37 36 36 36 36 34 32 31 30 31 31 30 30 30 27 25 19 16 11 12 16 17 17 20 9
22 23 27 28 27 29 30 31 31 31 31 31 32 35 33 33 32 35 35 34 33 33 34 35 34 34 35 34 33 33 32 34 34 32 27 25 24 19 18 17 18 20 18 13 11
19 22 27 29 30 31 29 30 31 32 32 32 32 34 34 33 34 34 34 33 30 30 32 33 33 33 35 36 34 33 38 38 35 35 26 25 25 19 17 10 14 20 15 9 15
20 22 25 30 30 31 28 27 31 32 32 32 32 34 35 34 33 34 33 30 29 30 32 32 34 34 34 35 35 36 40 44 39 37 35 33 26 19 18 13 15 19 15 16 15
21 22 24 31 31 31 31 30 28 26 27 30 33 35 36 36 33 33 32 29 28 29 33 33 35 36 37 39 39 39 42 42 39 40 40 37 31 25 24 22 12 14 18 17 11
17 17 19 27 29 29 29 30 26 25 25 27 33 36 37 37 35 33 29 25 23 23 31 34 36 36 39 36 36 36 36 42 41 43 37 34 29 26 24 19 12 13 17 13 13
15 11 12 16 20 22 25 28 28 26 27 28 32 36 36 37 37 35 32 26 22 21 24 33 35 37 36 36 36 36 35 40 40 38 37 30 29 21 25 19 19 18 18 13 16
11 7 7 12 14 18 21 23 29 29 30 30 31 34 36 36 36 30 25 26 25 21 26 35 36 35 33 34 34 36 34 37 36 34 34 32 26 21 19 21 21 16 16 16 21
11 6 7 12 15 17 20 24 28 31 32 33 32 33 37 37 36 30 22 23 24 23 27 34 33 31 29 28 30 38 37 35 30 29 27 25 20 20 22 23 23 20 19 22 23
Wind_Direction
210 209 207 206 206 207 204 202 198 194 191 179 181 190 140 143 79 51 79 103 113 96 97 95 116 110 102 96 80 74 68 65 69 72 66 62 59 53 50 49 49 49 52 49 60
214 212 210 209 209 208 209 207 205 202 201 196 197 209 187 106 84 59 50 82 61 99 84 116 134 115 103 102 97 84 77 68 70 75 72 65 61 55 52 50 46 45 51 47 54
220 217 214 213 212 212 211 210 211 207 209 208 207 219 218 161 78 89 83 75 47 80 75 121 140 118 111 109 104 96 88 79 69 73 76 69 60 53 47 49 42 38 45 45 49
222 222 220 218 216 215 213 213 213 212 211 214 211 219 226 201 182 82 100 103 92 69 83 119 152 118 116 112 101 95 93 87 80 68 75 68 57 43 48 52 40 37 45 48 51
226 223 224 223 221 218 215 214 215 216 213 216 217 220 224 214 208 182 148 132 122 90 72 104 151 126 123 118 106 103 98 90 83 74 72 63 60 55 54 46 47 48 46 54 50
231 228 226 227 226 222 218 217 214 217 217 217 219 222 226 224 218 207 196 181 155 111 86 93 145 133 126 121 118 112 106 96 86 75 63 55 57 60 51 41 46 51 49 47 47
235 232 230 228 230 228 223 220 218 215 218 219 219 223 228 230 226 224 215 205 196 160 107 96 115 148 138 117 112 113 112 108 98 82 70 56 39 43 51 39 37 44 40 33 34
236 236 234 233 228 228 229 224 221 218 219 219 219 220 227 231 233 228 223 217 211 200 169 129 117 141 149 138 128 124 119 117 113 100 87 73 46 30 43 42 30 22 36 30 26
237 237 237 236 234 230 227 229 227 224 221 218 219 221 226 227 236 232 230 224 218 216 202 181 183 153 163 167 151 148 130 120 115 108 99 87 73 47 29 38 32 16 11 14 24
236 237 237 237 236 234 231 229 229 227 224 222 220 221 224 221 233 235 231 225 224 225 215 208 214 203 187 185 186 176 147 145 120 111 103 89 63 47 37 27 22 15 5 4 12
237 235 236 237 237 235 235 233 230 229 225 224 222 223 221 218 229 231 234 228 223 226 228 217 223 219 220 204 187 164 173 165 149 150 118 74 40 47 35 26 15 7 350 353 1
237 235 234 235 236 235 235 236 233 229 229 226 224 222 220 220 223 228 231 230 226 227 228 227 227 223 227 227 215 181 190 190 188 185 178 104 81 44 33 29 10 357 352 348 354
239 234 234 233 234 234 234 236 234 231 230 228 225 221 221 220 221 231 228 228 227 227 227 228 225 227 228 230 224 214 213 224 220 236 228 198 65 33 28 26 8 348 2 9 4
252 238 232 232 232 232 233 233 234 234 231 230 228 224 225 221 217 227 228 228 226 225 225 220 226 230 231 229 228 219 224 226 238 259 252 265 287 32 16 5 356 339 357 354 350
251 247 237 231 232 231 231 231 231 232 230 228 225 223 224 221 218 226 228 228 228 228 226 225 221 229 235 235 230 223 231 233 235 254 261 281 288 304 321 337 337 343 347 343 344
253 248 242 236 231 232 232 231 230 230 228 227 228 225 224 221 216 222 226 226 227 229 227 230 224 227 235 230 234 229 227 235 239 251 257 273 287 312 310 328 334 345 319 328 336
250 248 244 239 233 231 232 233 232 231 228 227 228 226 225 222 220 221 224 226 229 230 230 232 230 228 234 235 244 237 223 236 239 238 252 268 280 302 330 327 329 332 316 326 332
254 245 248 238 235 233 230 231 233 232 231 229 229 226 226 223 223 224 225 224 227 228 227 229 231 229 233 235 241 234 224 238 236 241 247 271 274 295 310 312 303 300 316 317 335
254 247 245 243 236 232 230 228 229 232 232 229 228 227 226 224 225 225 228 227 226 227 229 230 230 230 231 235 230 230 225 230 236 250 256 269 271 282 279 284 296 312 332 323 319
260 249 245 243 238 235 231 227 227 227 225 226 225 229 226 224 223 226 228 230 232 229 226 229 228 228 229 232 231 226 225 226 232 247 254 266 278 276 286 282 285 293 327 347 349
277 260 248 243 238 235 233 228 228 226 225 223 223 229 230 226 225 228 230 229 228 228 228 226 224 224 228 230 234 230 225 228 236 243 249 263 272 286 296 298 293 293 322 342 6
287 269 253 246 238 235 230 229 228 229 227 224 222 225 231 231 228 228 231 230 228 225 228 227 223 221 224 229 233 233 229 230 234 241 250 258 264 276 280 288 284 300 305 317 296
305 291 260 244 235 231 225 226 227 228 226 225 221 220 227 230 231 232 233 232 229 227 228 227 227 218 221 226 226 231 237 237 235 239 247 254 264 269 280 290 289 299 299 314 312
314 292 279 239 229 228 225 223 224 224 220 219 219 218 221 227 227 232 236 238 232 235 236 233 230 226 225 234 237 235 235 236 235 241 252 256 267 270 270 278 266 273 299 304 308
327 302 260 228 221 223 222 219 221 218 220 217 217 221 222 226 228 226 235 238 244 237 239 239 239 233 227 229 232 229 231 234 238 244 247 254 258 270 273 253 262 278 297 301 300
329 307 252 215 218 220 217 216 219 218 221 223 219 223 228 229 232 228 227 228 237 237 233 238 238 234 227 227 226 231 229 231 235 240 245 257 261 256 243 251 271 288 297 297 296
331 300 267 231 220 220 218 217 218 220 220 225 223 224 226 228 235 235 216 221 229 234 233 231 234 231 230 228 225 230 228 229 232 233 237 254 260 258 265 259 270 286 288 305 295
Height
5886 5889 5892 5895 5897 5900 5903 5905 5908 5909 5911 5912 5912 5913 5913 5914 5914 5914 5915 5917 5916 5916 5917 5917 5918 5916 5915 5915 5914 5914 5912 5912 5912 5909 5909 5906 5903 5902 5899 5897 5896 5894 5891 5889 5887
5884 5887 5890 5893 5895 5898 5901 5904 5906 5908 5910 5911 5912 5912 5913 5915 5915 5916 5917 5917 5917 5918 5919 5919 5920 5918 5917 5917 5917 5915 5916 5916 5916 5913 5911 5910 5908 5906 5903 5900 5898 5897 5893 5892 5889
5881 5884 5887 5890 5892 5895 5898 5901 5904 5906 5908 5910 5911 5912 5913 5915 5916 5917 5917 5917 5919 5921 5921 5922 5921 5921 5919 5920 5919 5917 5918 5918 5919 5917 5915 5913 5912 5910 5907 5903 5902 5900 5897 5895 5893
5877 5880 5883 5886 5889 5892 5895 5898 5901 5904 5906 5908 5910 5911 5912 5915 5917 5917 5918 5918 5920 5923 5923 5923 5923 5922 5922 5922 5920 5921 5920 5921 5921 5920 5918 5916 5915 5914 5911 5909 5905 5901 5899 5897 5896
5873 5876 5879 5882 5885 5889 5892 5895 5897 5900 5903 5906 5908 5909 5911 5914 5915 5916 5918 5918 5920 5923 5925 5925 5925 5924 5924 5924 5923 5923 5923 5923 5923 5922 5921 5919 5917 5917 5915 5912 5908 5903 5901 5900 5899
5869 5871 5874 5877 5881 5884 5888 5891 5894 5897 5900 5903 5905 5907 5909 5912 5913 5915 5917 5918 5920 5922 5925 5926 5927 5927 5926 5926 5925 5925 5925 5925 5925 5923 5923 5922 5921 5919 5917 5914 5911 5907 5905 5903 5902
5864 5867 5869 5872 5876 5879 5883 5887 5890 5893 5897 5899 5902 5905 5906 5909 5911 5913 5916 5918 5919 5921 5924 5926 5927 5929 5929 5929 5928 5926 5926 5925 5926 5925 5924 5923 5922 5921 5919 5916 5914 5911 5909 5907 5905
5859 5862 5865 5867 5870 5874 5878 5882 5885 5889 5893 5896 5898 5901 5903 5905 5908 5911 5914 5916 5918 5920 5923 5925 5926 5929 5930 5930 5929 5928 5927 5926 5926 5925 5925 5924 5924 5922 5921 5919 5916 5913 5912 5909 5907
5853 5856 5859 5862 5865 5869 5873 5876 5880 5884 5888 5891 5895 5898 5900 5903 5904 5908 5912 5915 5917 5918 5920 5923 5925 5927 5929 5930 5929 5929 5930 5928 5928 5927 5926 5926 5924 5922 5921 5921 5919 5916 5913 5911 5909
5846 5849 5852 5856 5859 5863 5868 5870 5874 5878 5882 5887 5890 5895 5896 5900 5901 5905 5908 5912 5914 5916 5919 5921 5923 5925 5926 5929 5930 5931 5931 5929 5929 5929 5928 5928 5926 5924 5922 5922 5920 5918 5915 5912 5911
5838 5842 5846 5849 5853 5858 5862 5865 5870 5873 5876 5880 5885 5888 5892 5896 5897 5900 5904 5908 5911 5914 5917 5919 5921 5922 5923 5926 5929 5930 5930 5929 5929 5929 5929 5928 5928 5927 5925 5923 5921 5918 5916 5914 5914
5830 5834 5839 5842 5847 5852 5855 5858 5862 5866 5870 5874 5878 5883 5886 5890 5893 5896 5900 5904 5908 5910 5914 5917 5919 5919 5920 5923 5926 5929 5928 5928 5929 5929 5930 5929 5929 5928 5927 5925 5922 5919 5916 5915 5916
5822 5826 5830 5835 5839 5845 5848 5852 5856 5859 5864 5869 5872 5876 5880 5885 5888 5891 5895 5899 5903 5906 5910 5913 5916 5916 5918 5920 5923 5925 5925 5926 5928 5928 5929 5929 5929 5928 5928 5926 5924 5921 5918 5915 5913
5815 5817 5822 5827 5834 5837 5842 5846 5849 5853 5857 5862 5865 5870 5873 5879 5883 5884 5889 5894 5897 5901 5904 5908 5910 5912 5914 5917 5921 5922 5924 5925 5926 5928 5929 5928 5929 5927 5927 5926 5925 5922 5920 5915 5910
5810 5811 5814 5819 5824 5830 5835 5839 5843 5847 5852 5855 5858 5862 5866 5873 5879 5879 5883 5887 5892 5895 5900 5905 5906 5908 5911 5915 5916 5920 5921 5923 5924 5926 5927 5926 5926 5926 5926 5925 5924 5923 5921 5915 5911
5804 5806 5808 5811 5816 5821 5826 5831 5837 5842 5843 5848 5851 5856 5861 5865 5870 5873 5877 5882 5886 5888 5893 5895 5900 5904 5906 5909 5911 5915 5919 5920 5921 5923 5924 5924 5924 5924 5923 5924 5923 5921 5918 5915 5911
5798 5800 5802 5805 5809 5813 5818 5824 5830 5832 5837 5842 5845 5850 5855 5859 5864 5866 5871 5876 5879 5883 5888 5891 5895 5899 5902 5905 5907 5911 5915 5916 5919 5921 5922 5921 5921 5921 5921 5921 5921 5920 5916 5913 5910
5793 5795 5795 5799 5802 5805 5810 5817 5822 5825 5829 5834 5839 5843 5848 5853 5857 5861 5864 5869 5872 5877 5882 5885 5890 5894 5898 5901 5903 5906 5911 5912 5913 5916 5917 5918 5919 5920 5920 5920 5919 5917 5915 5911 5909
5786 5788 5789 5792 5796 5799 5804 5809 5813 5817 5822 5828 5832 5836 5841 5847 5851 5854 5858 5863 5866 5871 5876 5879 5884 5888 5892 5894 5897 5900 5904 5908 5909 5911 5913 5914 5916 5916 5917 5917 5916 5914 5913 5909 5907
5779 5782 5783 5785 5789 5792 5797 5803 5806 5809 5815 5820 5825 5830 5835 5840 5844 5847 5851 5856 5861 5866 5870 5873 5878 5882 5885 5887 5890 5895 5900 5903 5905 5906 5908 5909 5911 5912 5912 5913 5913 5912 5911 5908 5905
5773 5775 5776 5778 5782 5785 5790 5795 5797 5801 5807 5814 5819 5822 5827 5833 5837 5841 5845 5850 5855 5860 5863 5867 5872 5877 5879 5881 5885 5890 5893 5896 5899 5901 5903 5905 5907 5909 5908 5909 5909 5908 5907 5907 5904
5767 5769 5769 5770 5775 5778 5783 5786 5790 5794 5801 5806 5812 5816 5819 5825 5830 5835 5839 5843 5848 5852 5856 5861 5864 5868 5873 5876 5878 5881 5884 5889 5893 5897 5899 5901 5904 5906 5905 5905 5905 5904 5903 5902 5900
5760 5759 5760 5762 5766 5770 5775 5779 5784 5789 5794 5800 5804 5808 5813 5818 5824 5828 5832 5837 5841 5845 5848 5853 5857 5862 5864 5867 5870 5873 5878 5883 5887 5891 5892 5896 5899 5902 5902 5902 5901 5900 5899 5897 5895
5754 5752 5751 5753 5758 5763 5769 5774 5779 5783 5787 5793 5797 5802 5807 5812 5817 5822 5827 5831 5836 5840 5843 5847 5851 5855 5859 5863 5867 5870 5874 5877 5881 5883 5887 5890 5894 5896 5896 5898 5898 5897 5895 5894 5892
5749 5747 5747 5749 5753 5758 5763 5769 5773 5778 5782 5787 5792 5796 5802 5807 5811 5817 5821 5826 5830 5834 5837 5840 5845 5849 5854 5856 5857 5862 5867 5870 5874 5879 5882 5886 5888 5891 5891 5892 5893 5893 5891 5890 5889
5749 5747 5746 5748 5751 5755 5759 5763 5767 5772 5777 5781 5787 5791 5796 5802 5805 5811 5816 5821 5824 5828 5831 5834 5837 5842 5847 5850 5852 5856 5860 5863 5867 5871 5875 5879 5883 5886 5885 5887 5888 5888 5887 5886 5884
5749 5747 5747 5748 5749 5752 5756 5758 5762 5766 5771 5775 5781 5786 5790 5795 5799 5805 5812 5816 5819 5823 5826 5829 5832 5837 5841 5845 5847 5849 5853 5858 5864 5867 5871 5874 5879 5880 5881 5882 5882 5882 5882 5881 5878